Temp
-17 -17 -16 -16 -16 -15 -15 -15 -15 -15 -15 -15 -15 -14 -14 -14 -14 -13 -13 -14 -13 -13 -13 -13 -13 -14 -14 -13 -13 -14 -14 -13 -13 -14 -14 -15 -15 -15 -15 -15 -16 -17 -16 -15 -15 -15 -14 -14 -15 -15 -15 -14 -14 -15
-18 -17 -17 -16 -16 -15 -16 -16 -16 -15 -15 -15 -15 -15 -15 -15 -15 -14 -14 -15 -14 -14 -14 -14 -14 -14 -14 -14 -14 -15 -15 -15 -14 -14 -15 -15 -15 -16 -16 -16 -16 -16 -18 -18 -17 -16 -16 -15 -15 -15 -16 -16 -16 -15
-18 -18 -17 -16 -16 -16 -16 -16 -16 -16 -15 -15 -16 -15 -15 -16 -15 -15 -15 -15 -15 -15 -15 -14 -14 -15 -15 -16 -15 -16 -16 -16 -16 -16 -16 -15 -16 -16 -16 -16 -16 -16 -17 -18 -17 -17 -17 -16 -16 -17 -16 -16 -17 -16
-18 -18 -18 -17 -17 -16 -16 -16 -16 -16 -16 -16 -16 -16 -16 -16 -16 -15 -15 -15 -15 -15 -16 -15 -14 -16 -16 -17 -17 -16 -17 -16 -17 -17 -16 -16 -16 -16 -16 -16 -16 -17 -18 -18 -18 -18 -19 -19 -19 -18 -18 -17 -17 -17
-18 -18 -18 -18 -18 -17 -17 -16 -16 -16 -17 -17 -17 -17 -17 -17 -17 -16 -16 -16 -16 -17 -16 -16 -16 -16 -16 -17 -17 -17 -17 -17 -17 -17 -17 -17 -17 -18 -17 -17 -16 -18 -18 -19 -19 -20 -20 -20 -20 -19 -19 -19 -19 -18
-19 -18 -18 -19 -19 -18 -18 -18 -18 -18 -18 -18 -18 -18 -17 -17 -17 -17 -17 -17 -17 -17 -16 -16 -16 -17 -17 -17 -17 -17 -18 -18 -18 -18 -18 -18 -19 -19 -18 -18 -18 -19 -20 -20 -20 -20 -21 -20 -21 -21 -21 -20 -20 -20
-19 -19 -19 -19 -19 -19 -19 -19 -18 -18 -18 -18 -18 -18 -18 -18 -18 -18 -17 -17 -17 -17 -17 -17 -17 -17 -18 -18 -18 -18 -19 -19 -19 -19 -19 -19 -20 -21 -20 -19 -20 -20 -20 -21 -21 -21 -21 -21 -21 -21 -22 -21 -21 -21
-19 -19 -19 -19 -19 -19 -19 -19 -19 -19 -18 -18 -18 -18 -18 -18 -18 -18 -18 -18 -18 -18 -18 -18 -19 -19 -19 -19 -19 -19 -20 -20 -20 -20 -20 -20 -20 -21 -20 -20 -21 -20 -21 -21 -21 -22 -22 -22 -22 -22 -22 -22 -22 -22
-20 -20 -19 -19 -19 -19 -19 -19 -19 -19 -19 -19 -19 -19 -19 -19 -19 -19 -19 -19 -19 -19 -19 -20 -20 -20 -19 -20 -20 -20 -20 -20 -20 -20 -20 -21 -21 -21 -21 -21 -22 -22 -22 -22 -22 -22 -23 -24 -24 -23 -23 -23 -23 -23
-20 -20 -20 -20 -20 -20 -20 -20 -20 -20 -20 -20 -20 -20 -20 -20 -20 -20 -20 -20 -20 -20 -20 -20 -21 -21 -21 -21 -21 -21 -21 -21 -20 -20 -21 -21 -20 -20 -21 -23 -24 -24 -25 -25 -26 -25 -24 -25 -25 -24 -24 -24 -24 -24
-21 -21 -21 -21 -21 -21 -21 -21 -21 -20 -20 -21 -21 -20 -20 -20 -20 -20 -20 -20 -20 -21 -21 -21 -22 -22 -22 -22 -22 -23 -23 -23 -22 -22 -23 -22 -23 -25 -26 -26 -25 -25 -25 -25 -25 -24 -24 -24 -24 -24 -24 -24 -25 -25
-22 -22 -22 -22 -22 -22 -21 -22 -22 -21 -21 -21 -21 -21 -21 -21 -21 -21 -21 -21 -21 -21 -22 -22 -22 -22 -22 -23 -23 -23 -24 -24 -24 -25 -25 -25 -26 -25 -25 -25 -24 -24 -24 -24 -25 -24 -24 -24 -24 -24 -24 -24 -24 -25
-23 -23 -23 -23 -22 -22 -22 -22 -22 -22 -22 -22 -22 -21 -21 -21 -22 -22 -22 -22 -22 -22 -22 -23 -23 -24 -24 -25 -26 -26 -26 -26 -26 -26 -26 -26 -25 -24 -24 -24 -24 -24 -24 -24 -24 -24 -24 -24 -24 -24 -24 -24 -24 -25
-25 -24 -24 -24 -24 -24 -23 -23 -23 -23 -23 -23 -23 -22 -22 -22 -22 -22 -23 -23 -23 -24 -24 -26 -26 -26 -26 -26 -26 -26 -26 -26 -26 -26 -26 -25 -25 -25 -25 -24 -24 -24 -24 -24 -24 -24 -24 -24 -24 -24 -24 -24 -24 -24
-25 -25 -24 -24 -24 -24 -24 -23 -23 -23 -23 -23 -23 -23 -23 -23 -23 -24 -24 -25 -25 -27 -27 -26 -27 -26 -26 -26 -26 -26 -26 -26 -26 -26 -26 -25 -25 -25 -25 -24 -24 -24 -24 -24 -24 -24 -24 -24 -24 -24 -24 -24 -24 -24
-27 -26 -26 -25 -25 -24 -24 -24 -24 -24 -24 -24 -24 -24 -24 -26 -27 -26 -27 -27 -27 -27 -27 -26 -26 -26 -26 -26 -26 -25 -25 -25 -25 -25 -25 -25 -24 -24 -24 -24 -24 -24 -24 -23 -23 -24 -24 -24 -24 -24 -24 -23 -23 -23
-27 -27 -27 -26 -26 -26 -26 -26 -25 -25 -25 -26 -26 -25 -26 -26 -26 -27 -27 -27 -27 -27 -26 -26 -26 -26 -26 -25 -25 -26 -26 -26 -25 -25 -24 -25 -24 -24 -24 -24 -23 -24 -23 -23 -23 -23 -24 -23 -23 -23 -23 -23 -22 -21
-28 -28 -27 -27 -27 -27 -27 -27 -26 -26 -26 -25 -25 -25 -26 -25 -24 -25 -25 -25 -25 -26 -26 -26 -26 -25 -25 -26 -26 -26 -25 -24 -24 -24 -23 -23 -23 -23 -23 -23 -23 -23 -23 -23 -22 -22 -22 -22 -21 -21 -21 -21 -21 -21
-28 -28 -28 -27 -27 -27 -26 -26 -25 -25 -25 -25 -25 -25 -24 -24 -25 -25 -25 -25 -25 -25 -25 -25 -25 -25 -25 -25 -24 -24 -24 -24 -23 -24 -24 -23 -23 -23 -23 -23 -22 -22 -22 -22 -21 -21 -21 -21 -20 -20 -20 -21 -20 -20
-27 -27 -27 -26 -26 -25 -25 -25 -25 -25 -24 -24 -24 -24 -24 -24 -24 -24 -24 -24 -24 -24 -24 -24 -24 -24 -24 -24 -24 -23 -23 -23 -23 -23 -23 -22 -22 -22 -22 -22 -22 -21 -21 -21 -20 -20 -20 -20 -20 -21 -20 -19 -19 -19
-26 -26 -26 -25 -25 -25 -25 -25 -25 -24 -24 -24 -25 -25 -25 -25 -25 -24 -24 -24 -24 -23 -24 -24 -24 -24 -23 -23 -23 -23 -23 -23 -23 -22 -22 -22 -22 -22 -21 -21 -21 -20 -20 -20 -20 -20 -20 -21 -20 -20 -20 -19 -19 -19
-25 -25 -25 -25 -25 -25 -25 -25 -24 -24 -24 -24 -24 -24 -24 -24 -24 -24 -24 -23 -23 -24 -24 -23 -23 -23 -23 -23 -22 -23 -22 -22 -22 -22 -21 -21 -21 -21 -20 -20 -20 -20 -20 -19 -20 -20 -20 -19 -19 -19 -19 -18 -18 -18
-25 -25 -25 -25 -25 -25 -25 -24 -24 -24 -24 -24 -24 -24 -24 -24 -24 -24 -24 -24 -24 -23 -23 -23 -23 -23 -22 -22 -21 -22 -22 -21 -21 -21 -20 -20 -20 -20 -20 -21 -21 -20 -19 -19 -20 -19 -19 -19 -19 -19 -19 -18 -18 -18
-24 -24 -24 -24 -24 -24 -25 -24 -24 -24 -24 -24 -24 -24 -24 -24 -24 -24 -24 -24 -24 -23 -23 -23 -22 -22 -21 -22 -21 -21 -20 -20 -20 -21 -21 -20 -20 -19 -19 -19 -19 -19 -19 -19 -18 -19 -19 -18 -18 -18 -18 -18 -18 -18
-24 -24 -24 -24 -24 -25 -24 -24 -24 -24 -24 -24 -24 -24 -24 -24 -24 -24 -24 -24 -23 -23 -23 -22 -22 -21 -22 -21 -21 -20 -20 -19 -19 -19 -19 -19 -19 -19 -19 -19 -18 -18 -18 -18 -18 -18 -18 -18 -18 -17 -18 -18 -17 -18
-24 -24 -24 -24 -24 -24 -24 -24 -24 -24 -24 -24 -24 -24 -24 -24 -24 -24 -23 -23 -23 -23 -22 -21 -21 -21 -21 -21 -21 -20 -20 -19 -19 -20 -19 -18 -18 -18 -18 -18 -18 -18 -18 -18 -18 -18 -17 -18 -18 -17 -17 -17 -18 -18
-24 -24 -24 -24 -24 -24 -24 -24 -24 -24 -24 -24 -24 -24 -24 -24 -24 -24 -23 -23 -22 -22 -22 -22 -21 -21 -20 -21 -20 -20 -19 -19 -19 -19 -19 -18 -18 -18 -17 -17 -17 -17 -17 -17 -18 -17 -18 -17 -17 -17 -17 -18 -18 -19
-24 -24 -24 -25 -25 -24 -24 -25 -24 -24 -24 -24 -24 -24 -24 -23 -24 -23 -23 -22 -22 -22 -21 -21 -21 -20 -20 -20 -20 -19 -19 -19 -19 -19 -19 -18 -18 -18 -17 -17 -17 -17 -17 -17 -17 -17 -17 -17 -17 -17 -18 -18 -18 -19
-24 -24 -24 -24 -24 -24 -24 -24 -24 -25 -25 -24 -24 -23 -23 -23 -23 -23 -22 -22 -22 -21 -21 -21 -21 -20 -20 -20 -19 -19 -19 -19 -19 -18 -19 -19 -18 -18 -18 -17 -17 -17 -17 -17 -17 -17 -18 -18 -18 -18 -18 -19 -18 -18
-24 -24 -24 -24 -24 -24 -24 -24 -24 -24 -24 -24 -24 -24 -23 -23 -23 -23 -22 -22 -22 -21 -21 -20 -20 -20 -20 -20 -20 -20 -19 -19 -19 -19 -19 -19 -18 -18 -18 -18 -18 -18 -18 -18 -18 -18 -18 -18 -18 -18 -18 -18 -18 -18
-24 -24 -24 -24 -24 -24 -24 -24 -24 -24 -24 -24 -24 -24 -24 -24 -23 -23 -22 -22 -22 -22 -21 -20 -20 -21 -20 -20 -20 -20 -20 -19 -19 -19 -19 -18 -18 -18 -18 -18 -18 -18 -18 -18 -18 -18 -18 -18 -18 -18 -18 -18 -18 -18
-24 -24 -24 -24 -24 -24 -24 -24 -24 -24 -24 -24 -24 -24 -24 -24 -23 -23 -22 -22 -22 -22 -22 -22 -21 -21 -20 -20 -20 -19 -19 -19 -19 -19 -19 -18 -18 -18 -18 -18 -18 -18 -18 -18 -18 -18 -18 -18 -18 -18 -19 -18 -18 -18
-24 -24 -24 -24 -24 -24 -24 -24 -24 -24 -24 -24 -24 -24 -24 -24 -24 -23 -22 -22 -22 -22 -22 -22 -21 -21 -21 -20 -20 -19 -19 -19 -19 -18 -19 -19 -18 -18 -18 -18 -18 -18 -18 -18 -18 -18 -18 -18 -18 -18 -18 -18 -18 -18
Height
5610 5617 5623 5629 5636 5641 5647 5652 5657 5662 5666 5671 5675 5679 5683 5687 5690 5693 5696 5699 5702 5706 5708 5710 5713 5716 5716 5716 5717 5720 5721 5720 5721 5721 5722 5723 5722 5723 5723 5724 5724 5723 5721 5721 5721 5718 5718 5722 5725 5726 5725 5724 5725 5723
5600 5607 5613 5620 5626 5631 5637 5642 5646 5650 5655 5660 5664 5668 5671 5675 5678 5680 5684 5687 5689 5692 5697 5697 5700 5702 5703 5703 5707 5707 5708 5707 5705 5706 5708 5711 5712 5710 5710 5712 5711 5711 5706 5704 5707 5708 5705 5706 5706 5706 5707 5707 5709 5710
5591 5598 5604 5610 5616 5621 5627 5632 5636 5640 5645 5649 5653 5657 5660 5663 5666 5669 5672 5677 5679 5681 5684 5686 5689 5689 5691 5692 5693 5695 5694 5695 5694 5695 5694 5693 5693 5693 5696 5698 5698 5697 5692 5689 5691 5691 5689 5689 5694 5692 5691 5689 5691 5693
5583 5590 5596 5601 5607 5612 5616 5622 5626 5630 5635 5638 5642 5646 5649 5653 5656 5659 5662 5665 5667 5671 5671 5673 5676 5681 5681 5679 5680 5681 5680 5682 5682 5681 5680 5680 5679 5678 5679 5679 5682 5680 5678 5675 5675 5675 5674 5673 5674 5673 5679 5679 5676 5678
5576 5583 5588 5593 5597 5602 5607 5612 5617 5621 5625 5628 5632 5635 5639 5643 5646 5648 5651 5654 5656 5661 5662 5663 5664 5664 5668 5667 5666 5668 5667 5667 5666 5665 5665 5665 5663 5659 5662 5662 5669 5664 5661 5655 5660 5657 5654 5660 5660 5657 5658 5662 5663 5662
5569 5576 5581 5585 5590 5594 5598 5604 5608 5613 5616 5620 5623 5627 5630 5633 5636 5639 5642 5646 5646 5646 5649 5651 5654 5654 5654 5653 5654 5653 5652 5652 5651 5651 5650 5649 5648 5641 5643 5648 5654 5647 5643 5640 5642 5640 5637 5640 5641 5639 5636 5640 5641 5642
5561 5568 5574 5579 5583 5587 5592 5596 5600 5604 5608 5612 5615 5618 5622 5625 5628 5630 5633 5634 5635 5637 5638 5639 5639 5641 5642 5641 5640 5640 5640 5639 5638 5635 5637 5634 5632 5623 5623 5630 5639 5630 5625 5624 5622 5620 5615 5619 5619 5620 5619 5622 5621 5622
5555 5560 5566 5571 5575 5580 5584 5588 5592 5596 5599 5603 5606 5609 5613 5615 5618 5620 5621 5623 5625 5626 5626 5627 5627 5629 5628 5628 5628 5626 5625 5623 5624 5620 5623 5619 5616 5608 5608 5616 5612 5610 5606 5603 5601 5598 5593 5593 5595 5598 5599 5598 5597 5599
5548 5553 5557 5563 5568 5572 5576 5579 5583 5587 5591 5594 5597 5600 5603 5606 5609 5609 5612 5613 5614 5617 5616 5617 5614 5615 5616 5614 5613 5611 5609 5609 5609 5610 5611 5599 5602 5598 5597 5593 5589 5588 5584 5581 5579 5575 5572 5569 5570 5571 5573 5572 5572 5573
5545 5549 5553 5558 5561 5565 5570 5574 5578 5581 5584 5587 5590 5593 5595 5597 5599 5602 5602 5603 5605 5605 5605 5605 5603 5604 5603 5601 5598 5595 5591 5591 5589 5594 5587 5579 5578 5579 5575 5570 5564 5564 5563 5564 5562 5562 5561 5560 5557 5557 5557 5556 5553 5550
5542 5545 5548 5551 5555 5559 5563 5568 5571 5575 5577 5580 5583 5586 5589 5589 5591 5592 5593 5594 5594 5595 5595 5593 5592 5591 5587 5587 5587 5579 5577 5576 5573 5581 5568 5567 5565 5563 5558 5557 5557 5557 5556 5555 5556 5554 5552 5550 5548 5546 5545 5544 5539 5536
5538 5541 5544 5548 5551 5555 5558 5562 5565 5569 5571 5574 5577 5578 5580 5581 5582 5584 5583 5584 5584 5584 5582 5579 5580 5578 5577 5574 5572 5568 5565 5561 5562 5561 5557 5558 5557 5552 5551 5552 5551 5551 5549 5546 5545 5542 5542 5540 5538 5536 5534 5532 5529 5527
5533 5536 5539 5543 5547 5550 5553 5556 5559 5562 5564 5566 5568 5570 5572 5573 5573 5574 5573 5572 5571 5570 5569 5567 5565 5563 5563 5561 5559 5558 5556 5555 5553 5553 5552 5550 5547 5547 5546 5546 5544 5542 5541 5538 5535 5533 5530 5528 5526 5524 5523 5522 5519 5517
5529 5532 5535 5537 5540 5543 5546 5550 5552 5555 5558 5560 5561 5562 5562 5562 5561 5560 5559 5556 5556 5556 5556 5556 5556 5557 5555 5555 5554 5553 5552 5550 5548 5549 5547 5543 5543 5542 5540 5539 5537 5536 5532 5529 5526 5523 5521 5518 5516 5514 5514 5512 5510 5509
5526 5528 5531 5533 5536 5538 5541 5544 5546 5548 5550 5551 5552 5551 5551 5549 5547 5546 5545 5545 5543 5543 5546 5549 5551 5551 5552 5550 5549 5549 5547 5545 5545 5543 5539 5538 5537 5534 5533 5530 5527 5525 5522 5519 5516 5513 5510 5507 5505 5504 5504 5504 5503 5503
5523 5525 5526 5528 5531 5533 5536 5538 5539 5540 5540 5541 5541 5541 5541 5541 5541 5541 5541 5541 5542 5540 5544 5546 5547 5547 5547 5545 5544 5544 5543 5541 5539 5535 5532 5532 5530 5527 5525 5523 5520 5517 5514 5508 5504 5499 5496 5494 5494 5494 5496 5499 5500 5502
5520 5521 5522 5524 5526 5528 5530 5531 5532 5534 5535 5536 5536 5536 5536 5538 5539 5541 5541 5541 5542 5543 5544 5545 5545 5544 5542 5540 5539 5537 5535 5533 5530 5528 5526 5525 5522 5519 5517 5515 5513 5510 5505 5500 5497 5494 5490 5488 5487 5489 5492 5495 5499 5504
5517 5518 5520 5522 5524 5525 5527 5529 5531 5532 5534 5535 5537 5539 5540 5541 5541 5542 5542 5544 5544 5543 5544 5543 5541 5540 5537 5535 5533 5530 5527 5525 5523 5521 5520 5518 5516 5513 5511 5509 5506 5502 5499 5497 5494 5491 5489 5489 5490 5492 5495 5500 5505 5511
5516 5518 5520 5522 5524 5526 5529 5532 5534 5536 5538 5540 5541 5543 5544 5544 5544 5544 5544 5543 5542 5541 5539 5539 5536 5535 5533 5530 5527 5527 5524 5522 5520 5519 5515 5512 5508 5506 5504 5502 5500 5497 5496 5495 5494 5494 5495 5495 5497 5500 5504 5508 5512 5516
5519 5522 5524 5527 5529 5532 5535 5537 5539 5540 5541 5543 5544 5545 5545 5544 5544 5543 5542 5541 5540 5538 5537 5535 5534 5532 5530 5528 5525 5523 5520 5516 5513 5511 5508 5506 5505 5503 5501 5499 5498 5497 5497 5497 5498 5499 5501 5503 5505 5506 5509 5514 5518 5520
5527 5529 5531 5534 5536 5538 5540 5541 5542 5543 5544 5544 5544 5544 5543 5542 5541 5540 5539 5538 5537 5536 5535 5533 5531 5529 5526 5524 5521 5518 5515 5513 5511 5509 5508 5506 5505 5503 5503 5502 5502 5502 5503 5504 5505 5506 5508 5510 5511 5513 5516 5519 5523 5527
5535 5537 5539 5540 5542 5543 5544 5544 5544 5544 5544 5543 5543 5542 5541 5541 5540 5539 5538 5537 5536 5535 5532 5530 5529 5527 5525 5522 5520 5517 5515 5514 5512 5511 5510 5510 5509 5509 5508 5508 5508 5508 5509 5509 5510 5512 5513 5515 5517 5520 5522 5525 5528 5531
5543 5544 5545 5545 5546 5546 5547 5546 5545 5544 5544 5544 5543 5543 5543 5542 5541 5540 5539 5538 5536 5534 5532 5531 5530 5527 5525 5523 5521 5520 5518 5517 5517 5516 5516 5516 5517 5516 5515 5514 5512 5511 5512 5514 5516 5517 5519 5521 5523 5526 5528 5531 5534 5537
5549 5549 5550 5550 5550 5550 5549 5548 5548 5546 5546 5546 5546 5545 5544 5543 5542 5541 5540 5538 5537 5536 5535 5532 5530 5529 5529 5527 5524 5523 5523 5523 5522 5521 5519 5519 5517 5516 5516 5518 5517 5516 5518 5520 5523 5523 5524 5527 5529 5532 5537 5539 5542 5545
5555 5555 5555 5554 5554 5552 5550 5550 5551 5550 5549 5549 5549 5547 5546 5546 5544 5543 5541 5541 5540 5538 5536 5534 5533 5533 5532 5530 5528 5528 5528 5528 5527 5527 5525 5524 5522 5521 5519 5517 5519 5522 5524 5525 5526 5529 5530 5533 5536 5539 5543 5546 5549 5551
5558 5559 5559 5559 5558 5556 5555 5554 5554 5554 5554 5553 5552 5550 5548 5547 5546 5544 5543 5543 5542 5540 5537 5536 5537 5537 5534 5533 5533 5532 5532 5532 5532 5532 5529 5528 5526 5524 5524 5525 5526 5528 5530 5531 5531 5533 5535 5537 5540 5544 5548 5551 5554 5557
5562 5563 5563 5563 5561 5560 5558 5557 5556 5556 5556 5555 5554 5553 5553 5552 5550 5548 5546 5546 5544 5541 5539 5539 5539 5538 5537 5537 5538 5538 5538 5537 5537 5535 5532 5530 5527 5526 5526 5528 5529 5531 5533 5535 5536 5538 5540 5542 5546 5550 5553 5556 5559 5563
5567 5567 5567 5567 5566 5565 5564 5563 5559 5557 5557 5557 5557 5556 5555 5554 5552 5550 5549 5548 5547 5544 5543 5544 5545 5545 5543 5543 5545 5543 5541 5540 5541 5539 5537 5534 5531 5530 5530 5531 5533 5535 5536 5538 5541 5542 5545 5549 5552 5556 5560 5563 5566 5569
5572 5572 5571 5571 5571 5570 5571 5569 5566 5564 5561 5559 5558 5557 5557 5555 5554 5553 5552 5551 5550 5548 5548 5549 5550 5548 5548 5546 5547 5549 5548 5548 5547 5546 5543 5540 5537 5537 5537 5538 5538 5540 5542 5545 5548 5550 5553 5555 5558 5561 5565 5569 5574 5578
5573 5575 5575 5575 5575 5575 5574 5573 5571 5569 5568 5563 5561 5559 5557 5557 5556 5556 5555 5554 5553 5551 5551 5553 5554 5554 5553 5553 5553 5553 5553 5552 5551 5550 5549 5547 5545 5545 5545 5545 5547 5549 5549 5552 5556 5559 5561 5563 5566 5569 5574 5577 5581 5584
5576 5577 5577 5577 5578 5578 5577 5576 5575 5574 5572 5569 5566 5564 5562 5560 5559 5558 5557 5557 5557 5556 5556 5556 5557 5558 5559 5559 5558 5558 5557 5557 5556 5555 5554 5552 5550 5551 5552 5554 5554 5557 5558 5560 5562 5565 5568 5571 5574 5578 5581 5584 5588 5592
5577 5577 5578 5579 5579 5579 5579 5578 5577 5575 5574 5572 5570 5569 5568 5564 5561 5561 5560 5559 5559 5560 5560 5561 5561 5561 5562 5562 5562 5562 5561 5561 5560 5560 5559 5558 5557 5558 5558 5560 5562 5564 5566 5568 5569 5572 5574 5577 5580 5584 5587 5591 5594 5597
5576 5577 5577 5578 5579 5579 5579 5579 5578 5577 5576 5574 5573 5572 5570 5568 5566 5564 5563 5563 5563 5563 5564 5564 5564 5564 5565 5566 5565 5565 5566 5565 5565 5565 5565 5563 5561 5562 5564 5567 5569 5571 5573 5575 5578 5580 5583 5585 5588 5591 5594 5596 5599 5601
Wind_Speed
45 43 41 42 41 38 38 41 42 44 47 47 47 46 43 44 45 46 45 46 49 48 47 51 49 46 46 47 48 44 46 48 46 44 43 44 47 45 47 46 45 45 48 50 51 53 54 50 45 45 46 48 48 49
42 42 42 41 43 41 37 39 41 41 41 44 43 44 46 44 43 46 46 44 48 49 45 42 41 43 42 47 44 42 42 44 48 49 46 42 42 45 46 46 46 49 46 47 53 54 54 54 56 56 52 49 49 50
38 38 39 41 39 39 39 42 39 39 41 41 39 40 41 39 37 38 39 37 37 39 39 41 40 42 41 41 44 41 42 42 44 45 46 48 49 51 50 50 51 53 54 56 57 58 60 62 58 58 59 59 52 50
36 34 33 36 38 38 37 38 37 38 40 39 38 38 40 40 40 40 39 37 38 39 39 42 42 38 37 38 40 42 44 45 45 48 50 52 54 56 56 57 57 54 52 54 56 55 55 55 54 55 51 57 53 51
38 33 30 32 32 33 35 37 37 34 34 34 34 35 37 37 37 37 38 38 39 37 37 39 40 43 40 41 44 45 47 48 49 50 51 52 53 54 55 56 56 50 52 52 53 52 53 51 55 61 61 58 64 67
36 37 30 31 30 28 28 28 29 31 32 31 32 31 32 33 33 33 34 34 35 39 39 40 40 42 44 46 46 46 47 48 48 47 49 52 51 56 57 55 49 48 48 50 52 53 54 54 54 57 60 61 63 63
36 42 37 33 32 31 31 32 32 33 32 32 32 33 33 33 34 34 35 37 39 39 40 40 42 43 41 43 43 44 44 46 48 50 49 48 49 52 52 52 41 48 52 53 54 56 60 59 60 60 60 61 63 65
31 41 41 42 38 39 38 38 38 38 38 38 37 36 37 36 35 35 36 37 38 38 41 40 38 39 42 42 43 44 46 48 48 48 46 47 49 52 57 51 53 56 56 58 58 58 61 62 62 62 62 64 66 68
30 34 38 40 40 41 42 42 42 40 37 36 35 35 33 33 35 33 34 36 35 35 35 34 37 41 44 44 46 47 49 48 47 47 47 54 54 57 57 59 57 57 59 59 56 57 55 52 51 55 59 60 67 71
24 26 27 31 33 29 27 33 33 29 32 31 29 29 31 29 31 31 32 33 36 38 38 37 40 39 41 42 43 47 50 52 54 53 56 59 63 64 59 49 45 37 26 23 28 29 24 23 28 31 24 30 36 43
16 17 16 17 17 19 18 19 22 26 26 24 25 28 28 30 32 33 34 35 37 36 36 37 38 40 43 44 45 48 49 51 54 51 49 54 47 29 22 24 18 23 23 28 27 35 41 35 24 26 30 29 31 31
19 17 19 18 17 18 20 20 22 25 27 28 29 30 31 32 34 35 36 36 37 38 40 43 44 44 45 45 44 45 41 40 35 25 26 20 18 15 10 7 7 13 21 24 25 21 24 26 25 27 27 29 34 34
16 17 18 20 22 23 23 24 25 26 27 27 28 30 32 34 34 34 36 38 40 41 43 43 38 38 33 27 23 22 21 19 19 17 14 19 20 12 8 17 18 17 24 27 28 30 34 32 38 38 34 33 33 35
10 13 14 16 16 17 18 21 22 22 24 26 28 30 32 34 36 38 40 41 42 41 36 28 21 18 15 16 15 15 16 16 19 16 17 20 17 22 25 23 28 32 31 33 35 31 34 37 35 36 30 27 25 23
12 14 15 16 17 17 19 21 23 24 26 29 30 31 32 34 35 34 31 25 23 18 16 13 11 15 15 17 18 19 21 19 18 25 26 24 23 30 30 30 37 30 27 29 33 38 38 39 34 31 23 19 14 12
8 10 12 15 17 19 21 22 22 23 23 22 23 22 21 15 5 7 3 8 6 12 10 12 11 13 16 20 22 21 23 24 25 29 28 26 30 31 29 31 31 29 35 38 36 32 28 24 22 21 19 12 11 14
10 12 11 12 13 13 13 13 12 11 10 6 5 6 9 11 12 6 5 5 11 10 9 13 13 18 19 18 17 22 27 24 25 24 24 25 29 31 34 34 34 34 30 24 24 21 17 14 9 10 14 18 21 22
7 8 9 9 8 7 6 6 7 9 9 10 9 10 9 9 9 6 6 6 8 10 12 17 22 19 25 28 27 23 22 20 20 16 17 22 28 32 33 29 25 21 16 18 15 6 7 15 19 22 24 24 23 24
10 10 11 13 17 21 21 20 19 17 14 10 9 5 4 4 5 7 10 12 15 16 17 16 15 8 14 19 20 15 16 19 20 22 25 29 29 20 17 20 17 13 8 5 9 15 17 19 21 24 25 26 26 27
26 29 28 27 25 23 20 17 14 11 10 9 8 7 6 5 4 5 7 8 9 7 6 6 7 10 14 15 18 16 15 21 16 9 13 12 12 13 10 8 3 6 12 15 15 16 18 21 23 25 29 28 19 11
28 27 25 24 21 20 19 16 12 10 9 8 7 7 10 11 9 9 9 9 7 3 6 9 11 12 13 11 13 11 12 6 8 7 8 7 4 2 1 6 12 15 16 16 17 19 19 19 20 21 15 16 19 15
24 23 22 22 20 17 15 13 9 6 5 5 7 8 10 8 9 9 8 6 8 12 12 12 11 7 8 10 9 9 4 7 7 7 5 4 6 7 8 11 15 18 20 20 18 17 16 18 19 16 14 17 17 15
23 20 18 17 16 16 18 17 15 14 12 11 10 9 7 8 8 7 6 9 13 12 10 10 11 12 13 9 8 6 12 12 10 7 14 19 17 10 9 8 20 22 2 6 14 15 17 20 21 20 21 21 17 15
18 18 17 16 15 12 10 11 14 14 11 12 12 13 11 7 9 10 12 14 15 16 15 16 13 15 14 10 13 15 15 13 9 7 13 14 20 19 16 12 2 6 19 22 13 11 11 22 15 17 14 17 14 10
14 14 15 18 20 20 16 13 14 16 13 10 10 8 9 9 6 4 4 9 12 18 15 15 13 13 11 6 15 17 17 14 10 6 11 19 21 19 13 12 16 18 19 12 11 12 11 12 11 6 6 12 11 11
12 14 15 14 13 15 16 11 9 10 11 10 9 11 9 9 13 11 15 16 13 14 14 13 13 12 7 9 16 15 11 7 8 11 14 16 17 14 9 13 16 17 11 12 16 19 16 18 21 15 16 16 16 14
19 19 20 24 26 23 20 15 9 3 4 10 10 11 12 11 9 13 12 9 11 14 11 14 7 16 15 12 4 14 22 17 16 16 15 15 14 9 8 11 14 15 13 15 13 15 20 20 23 19 18 18 16 22
23 22 22 24 26 30 34 30 23 15 8 5 6 7 8 11 11 11 12 12 14 11 12 14 20 17 7 9 12 16 14 17 19 22 20 17 15 15 16 15 15 15 13 17 19 20 23 24 23 21 18 15 16 33
15 15 19 20 19 21 22 25 32 34 26 17 9 5 6 8 10 10 9 10 13 11 13 16 14 10 8 7 14 7 8 9 11 15 14 17 20 22 23 21 19 18 17 18 28 28 22 21 19 19 15 20 35 33
10 13 13 14 14 15 17 20 24 26 32 36 32 24 13 6 6 7 7 10 12 12 9 12 11 5 7 10 6 7 8 8 8 9 12 16 17 18 19 22 23 24 24 25 23 21 21 18 20 25 27 24 24 24
11 10 9 8 9 12 14 16 18 21 24 27 31 34 29 14 7 7 7 9 11 11 9 6 7 7 1 8 9 10 9 9 12 12 12 9 13 9 13 18 23 22 20 18 16 13 12 15 23 27 20 27 29 28
7 7 4 3 4 5 7 10 12 16 20 22 26 26 29 32 18 6 7 6 9 12 14 13 12 11 7 7 7 7 8 10 11 12 14 16 17 13 12 19 21 20 21 18 17 18 20 20 22 26 30 28 26 24
8 6 5 3 3 3 5 7 9 12 15 18 19 22 25 28 28 10 3 5 11 13 13 11 13 15 13 10 10 11 10 10 11 12 13 14 21 20 18 20 22 25 24 24 26 25 25 25 27 26 25 23 21 19
Wind_Direction
230 233 233 238 239 236 243 239 242 243 239 243 246 248 250 253 252 251 252 254 254 256 260 259 258 260 263 263 263 264 269 270 270 268 265 266 267 268 267 267 268 270 271 271 272 274 276 280 274 269 271 271 271 270
226 232 234 236 236 234 241 245 243 243 244 244 250 250 251 254 255 253 254 254 257 255 257 258 258 262 261 262 267 268 268 268 270 272 272 271 270 268 267 268 270 270 261 258 267 272 273 273 274 276 277 272 268 264
218 224 230 232 235 232 238 247 244 247 247 245 248 250 251 252 252 253 255 255 259 259 259 259 260 262 263 266 268 269 269 270 271 272 272 272 272 271 270 270 269 269 268 266 269 268 266 269 271 270 270 272 265 263
215 221 225 231 232 233 234 241 241 247 250 247 247 247 249 252 256 257 259 260 258 259 260 262 263 267 268 266 266 267 267 269 270 269 269 270 271 272 271 271 273 272 271 271 271 271 269 269 270 268 262 252 256 256
215 220 223 226 226 229 233 236 239 244 247 245 244 243 246 250 253 254 256 257 259 262 264 264 265 267 271 269 268 270 271 271 270 270 272 272 271 269 269 270 275 275 272 267 269 267 266 264 257 258 260 258 255 256
218 219 224 223 222 225 229 231 234 236 237 239 242 244 245 246 248 250 254 258 261 259 263 266 268 268 268 273 274 273 272 271 271 272 272 271 272 271 271 272 274 271 271 271 270 269 267 264 261 261 259 256 256 254
220 219 222 223 229 231 232 232 233 235 238 244 247 247 248 252 255 257 257 260 263 265 267 269 270 272 271 269 271 274 274 273 274 274 275 274 272 273 275 276 278 275 274 273 274 273 270 269 267 264 263 263 261 260
222 219 220 223 227 230 235 241 242 243 245 247 249 252 254 256 259 261 263 266 267 265 270 269 270 268 268 272 276 275 273 273 274 274 275 277 276 277 279 287 280 278 278 276 274 273 273 273 270 269 267 262 258 257
203 208 214 220 228 233 236 237 239 241 244 245 248 250 251 255 255 259 263 265 263 264 267 272 274 274 276 276 275 275 273 273 273 276 279 277 278 280 283 282 284 281 277 277 273 269 264 268 272 266 262 261 261 257
202 208 212 216 213 215 223 229 226 228 232 239 242 245 248 253 255 258 259 262 266 270 275 275 275 278 277 279 280 282 284 286 285 286 287 289 287 289 292 289 283 287 273 266 280 257 262 291 286 265 289 275 283 273
196 198 210 231 236 229 226 231 225 232 236 248 253 255 258 260 261 263 266 269 271 273 274 274 275 276 278 280 283 284 285 286 287 291 283 287 290 291 278 273 277 291 284 285 278 278 280 280 284 286 281 276 296 277
223 230 226 235 228 236 242 243 247 251 252 253 257 260 265 267 269 269 270 272 273 274 274 274 275 277 277 279 281 284 282 282 286 272 276 290 291 259 237 249 267 285 296 303 303 296 278 276 280 289 284 282 280 282
218 222 224 229 235 239 243 247 250 255 256 256 258 261 263 265 267 270 272 273 273 273 277 280 284 283 286 287 281 279 273 279 274 272 290 278 253 224 273 302 287 291 292 290 293 291 294 294 290 284 283 281 283 284
230 228 228 231 233 236 239 244 248 254 258 262 265 267 269 273 274 274 274 274 275 276 275 265 265 259 272 273 274 274 272 273 279 287 278 271 252 280 287 277 267 279 279 288 288 288 287 289 288 284 292 283 271 272
235 239 242 244 247 250 253 255 257 260 263 265 269 270 272 274 274 276 276 278 269 245 237 209 235 252 258 267 269 274 281 280 286 286 281 279 253 274 286 272 299 289 283 287 288 287 283 279 281 280 270 271 273 226
253 254 253 249 247 247 249 251 254 258 262 267 268 267 267 257 171 118 36 341 234 177 207 203 219 236 252 267 274 279 280 285 284 281 277 280 282 282 279 280 290 292 301 297 299 301 293 279 273 262 242 242 236 177
263 265 247 233 230 231 233 236 241 245 246 235 212 181 155 154 153 166 199 238 198 187 197 224 239 257 269 280 289 283 289 286 273 273 279 286 288 284 279 288 297 299 299 303 298 303 293 280 247 195 192 173 154 152
228 198 187 184 186 187 182 167 144 126 120 126 134 146 153 175 166 164 190 201 233 248 242 243 253 274 284 295 292 292 297 305 307 298 285 280 275 275 287 296 291 293 294 296 299 270 148 133 135 137 136 136 140 143
136 132 129 123 117 109 106 101 101 102 103 115 116 112 164 217 230 259 254 277 275 294 300 292 300 288 279 285 294 304 308 309 293 290 289 281 286 294 284 278 286 288 281 237 164 137 135 131 130 133 138 137 132 124
119 114 109 103 99 97 96 95 97 105 103 108 96 72 57 39 27 17 14 17 15 10 359 359 336 302 289 297 305 312 304 301 311 298 281 296 300 293 291 288 254 165 152 143 136 129 130 134 139 143 136 125 125 104
98 96 95 98 99 95 85 80 76 90 108 108 78 48 18 5 355 352 351 2 3 339 313 318 328 322 319 316 321 323 313 316 325 317 312 321 337 337 246 166 145 134 125 121 124 132 134 143 142 140 117 123 141 152
98 99 98 95 88 80 70 62 61 65 60 42 18 9 10 9 3 357 349 360 4 357 350 351 4 354 350 351 350 30 52 13 22 32 51 83 117 120 126 136 140 134 130 129 130 136 139 129 125 135 143 129 116 117
95 91 86 80 74 72 62 55 55 57 55 53 51 47 38 56 53 40 32 29 17 4 15 25 24 20 28 25 28 60 46 47 48 80 123 106 81 103 124 158 163 139 106 128 143 114 117 119 120 104 102 115 129 86
90 86 80 76 73 66 35 37 44 43 60 70 79 78 75 84 76 69 44 43 38 47 34 29 41 46 47 54 78 75 67 69 79 134 146 30 24 26 17 25 304 65 124 118 128 129 136 136 105 101 89 117 117 112
84 79 87 86 62 46 53 86 72 59 67 81 100 85 65 50 57 105 35 56 60 33 21 36 81 79 72 106 110 99 96 88 78 57 33 24 21 26 50 106 132 128 119 88 111 130 124 118 119 146 119 144 130 120
88 87 89 81 62 59 52 78 90 68 71 64 55 48 50 54 88 77 75 74 51 37 50 99 108 84 130 107 127 93 51 47 46 26 25 21 8 12 79 126 130 121 120 100 107 131 140 138 139 142 138 134 133 121
98 95 85 76 72 66 56 39 34 55 49 51 60 60 54 48 59 69 69 44 27 28 81 122 147 128 139 140 112 93 75 86 56 40 27 13 13 51 93 136 143 136 138 131 123 113 128 139 154 139 129 134 137 146
104 96 86 73 66 59 55 56 56 57 72 76 51 46 39 34 39 57 47 36 41 60 112 133 135 123 134 83 111 78 73 62 64 45 35 41 57 84 101 112 119 121 127 131 123 118 112 119 128 128 126 134 158 167
84 80 84 80 72 69 63 58 55 53 55 54 44 30 40 31 32 39 50 44 51 72 133 156 156 84 53 38 155 109 80 61 59 45 37 50 65 91 85 92 119 128 131 126 120 112 109 111 119 117 123 137 147 139
69 108 96 85 76 69 63 57 53 51 40 45 45 43 48 46 22 30 60 63 60 59 139 162 172 196 54 34 88 92 53 43 42 33 49 81 81 72 90 92 90 94 108 114 115 122 123 107 121 133 142 136 147 154
140 128 113 94 83 72 66 60 54 49 41 40 37 36 40 43 43 52 77 74 90 77 113 161 209 225 131 107 76 59 67 77 65 63 55 100 91 85 90 104 103 100 101 109 121 138 146 137 144 147 136 138 137 134
173 166 152 105 89 70 45 40 33 27 24 25 29 29 33 31 28 47 69 81 108 114 116 115 115 115 113 99 95 85 85 76 69 63 79 107 102 93 124 126 119 118 119 116 120 134 149 154 157 152 140 139 140 143
202 206 224 233 240 296 334 356 5 5 5 8 10 15 17 21 24 28 47 113 133 128 120 112 119 113 115 109 103 100 101 94 85 72 61 75 88 92 124 135 130 128 124 127 125 123 129 134 138 143 148 150 150 153